WMT697 LFMN-LIRF

Flight info

Callsign WMT697
Flight time 0h 57m
Altitude 29000
Route SODRI DCT RAPUR DCT RATAP DCT BTA/N0410F280 DCT MOULE DCT XOPTA DCT ELB DCT ELKAP
Aircraft A21N/M-SDE1E2E3FGIJ1J4RWXY/LB1

Departure

Time 2026-05-01 14:30
Airport Nice-Côte d'Azur Airport (LFMN)

Arrival

Time 2026-05-01 15:27
Airport Rome–Fiumicino Leonardo da Vinci International Airport (LIRF)
Time Latitude Longitude Altitude Speed Heading
2026-05-01 14:04 43.65861 7.20628 30 ft 0 kts 315°
2026-05-01 14:19 43.65858 7.20632 30 ft 2 kts 315°
2026-05-01 14:19 43.65848 7.20646 30 ft 2 kts 315°
2026-05-01 14:19 43.65837 7.20661 30 ft 2 kts 315°
2026-05-01 14:19 43.65826 7.20676 30 ft 2 kts 315°
2026-05-01 14:20 43.65813 7.20685 30 ft 2 kts 354°
2026-05-01 14:20 43.65790 7.20676 29 ft 0 kts 42°
2026-05-01 14:20 43.65785 7.20669 29 ft 0 kts 44°
2026-05-01 14:22 43.65786 7.20670 29 ft 0 kts 44°
2026-05-01 14:23 43.65788 7.20674 29 ft 0 kts 44°
2026-05-01 14:23 43.65790 7.20677 29 ft 0 kts 44°
2026-05-01 14:23 43.65795 7.20683 29 ft 1 kts 44°
2026-05-01 14:23 43.65809 7.20702 30 ft 4 kts 44°
2026-05-01 14:24 43.65847 7.20753 29 ft 9 kts 45°
2026-05-01 14:24 43.65854 7.20842 27 ft 8 kts 152°
2026-05-01 14:24 43.65782 7.20873 26 ft 12 kts 169°
2026-05-01 14:24 43.65688 7.20892 26 ft 15 kts 171°
2026-05-01 14:25 43.65581 7.20916 25 ft 15 kts 170°
2026-05-01 14:25 43.65471 7.20941 23 ft 16 kts 171°
2026-05-01 14:25 43.65366 7.20953 23 ft 14 kts 194°
2026-05-01 14:25 43.65288 7.20872 23 ft 14 kts 224°
2026-05-01 14:26 43.65216 7.20776 23 ft 14 kts 224°
2026-05-01 14:26 43.65055 7.20557 20 ft 18 kts 222°
2026-05-01 14:26 43.64962 7.20427 20 ft 18 kts 225°
2026-05-01 14:27 43.64889 7.20325 19 ft 12 kts 225°
2026-05-01 14:27 43.64811 7.20283 19 ft 12 kts 153°
2026-05-01 14:27 43.64778 7.20377 20 ft 11 kts 69°
2026-05-01 14:28 43.64806 7.20425 20 ft 0 kts 44°
2026-05-01 14:28 43.64807 7.20426 20 ft 1 kts 44°
2026-05-01 14:28 43.64959 7.20637 20 ft 69 kts 45°
2026-05-01 14:29 43.65485 7.21350 24 ft 137 kts 45°
2026-05-01 14:29 43.66266 7.22429 273 ft 167 kts 46°
2026-05-01 14:30 43.65883 7.26249 1934 ft 185 kts 140°
2026-05-01 14:30 43.64859 7.27430 2303 ft 201 kts 134°
2026-05-01 14:30 43.63791 7.28831 2713 ft 218 kts 132°
2026-05-01 14:31 43.61646 7.31747 4244 ft 222 kts 132°
2026-05-01 14:31 43.60532 7.33261 4977 ft 226 kts 135°
2026-05-01 14:31 43.59245 7.34494 5683 ft 234 kts 151°
2026-05-01 14:31 43.57722 7.35350 6429 ft 238 kts 157°
2026-05-01 14:32 43.56161 7.36125 7170 ft 242 kts 158°
2026-05-01 14:32 43.54575 7.36903 7916 ft 245 kts 157°
2026-05-01 14:32 43.52977 7.37698 8660 ft 249 kts 157°
2026-05-01 14:32 43.51357 7.38513 9372 ft 253 kts 157°
2026-05-01 14:33 43.49646 7.39377 9823 ft 269 kts 157°
2026-05-01 14:33 43.47839 7.40290 10235 ft 286 kts 157°
2026-05-01 14:33 43.45930 7.41254 10684 ft 302 kts 157°
2026-05-01 14:33 43.43887 7.42287 11043 ft 319 kts 157°
2026-05-01 14:34 43.41763 7.43359 11483 ft 333 kts 157°
2026-05-01 14:34 43.39568 7.44465 12176 ft 337 kts 157°
2026-05-01 14:34 43.37387 7.45563 12888 ft 341 kts 157°
2026-05-01 14:34 43.35133 7.46698 13564 ft 344 kts 157°
2026-05-01 14:35 43.32883 7.47829 14232 ft 348 kts 157°
2026-05-01 14:35 43.30608 7.48973 14884 ft 351 kts 157°
2026-05-01 14:35 43.28323 7.50124 15554 ft 354 kts 157°
2026-05-01 14:35 43.26008 7.51290 16175 ft 357 kts 157°
2026-05-01 14:36 43.23641 7.52480 16816 ft 360 kts 157°
2026-05-01 14:36 43.21299 7.53657 17429 ft 363 kts 156°
2026-05-01 14:36 43.18923 7.54849 18008 ft 366 kts 156°
2026-05-01 14:36 43.16522 7.56051 18596 ft 369 kts 156°
2026-05-01 14:37 43.14119 7.57267 19121 ft 372 kts 155°
2026-05-01 14:37 43.11921 7.59061 19602 ft 369 kts 134°
2026-05-01 14:37 43.10375 7.61823 20126 ft 365 kts 114°
2026-05-01 14:37 43.09630 7.65088 20618 ft 362 kts 97°
2026-05-01 14:38 43.09245 7.68493 21116 ft 365 kts 96°
2026-05-01 14:38 43.08861 7.71926 21576 ft 369 kts 96°
2026-05-01 14:38 43.08452 7.75427 22059 ft 372 kts 97°
2026-05-01 14:38 43.08032 7.78918 22569 ft 374 kts 97°
2026-05-01 14:39 43.07620 7.82414 23022 ft 377 kts 96°
2026-05-01 14:39 43.07220 7.85944 23465 ft 380 kts 96°
2026-05-01 14:39 43.06811 7.89553 23900 ft 383 kts 96°
2026-05-01 14:39 43.06403 7.93149 24317 ft 387 kts 96°
2026-05-01 14:40 43.05989 7.96776 24723 ft 390 kts 96°
2026-05-01 14:40 43.05569 8.00446 25133 ft 393 kts 96°
2026-05-01 14:40 43.05143 8.04144 25570 ft 395 kts 96°
2026-05-01 14:40 43.04716 8.07832 26106 ft 394 kts 96°
2026-05-01 14:41 43.04293 8.11492 26621 ft 393 kts 96°
2026-05-01 14:41 43.03869 8.15155 27109 ft 393 kts 96°
2026-05-01 14:41 43.03442 8.18832 27564 ft 394 kts 96°
2026-05-01 14:41 43.03011 8.22537 27972 ft 396 kts 95°
2026-05-01 14:42 43.02580 8.26220 28397 ft 397 kts 95°
2026-05-01 14:42 43.02143 8.29941 28788 ft 399 kts 95°
2026-05-01 14:42 43.01640 8.33671 29141 ft 403 kts 99°
2026-05-01 14:43 42.99806 8.40919 29242 ft 406 kts 112°
2026-05-01 14:43 42.97196 8.47698 29245 ft 404 kts 115°
2026-05-01 14:44 42.94527 8.54438 29244 ft 404 kts 115°
2026-05-01 14:44 42.90547 8.64543 29237 ft 404 kts 114°
2026-05-01 14:45 42.86525 8.74711 29241 ft 405 kts 115°
2026-05-01 14:46 42.83838 8.81476 29236 ft 406 kts 115°
2026-05-01 14:46 42.79741 8.91776 29221 ft 405 kts 115°
2026-05-01 14:47 42.77045 8.98535 29218 ft 405 kts 115°
2026-05-01 14:48 42.72978 9.08697 29215 ft 405 kts 114°
2026-05-01 14:48 42.68846 9.18980 29221 ft 407 kts 114°
2026-05-01 14:49 42.63397 9.32504 29221 ft 407 kts 114°
2026-05-01 14:50 42.58239 9.46366 29216 ft 398 kts 97°
2026-05-01 14:51 42.57955 9.50047 29229 ft 394 kts 83°
2026-05-01 14:51 42.58967 9.57253 29235 ft 392 kts 70°
2026-05-01 14:52 42.60939 9.68176 29228 ft 392 kts 71°
2026-05-01 14:53 42.62821 9.79054 29225 ft 391 kts 71°
2026-05-01 14:53 42.64050 9.86223 29221 ft 390 kts 71°
2026-05-01 14:54 42.65269 9.93360 29220 ft 390 kts 71°
2026-05-01 14:54 42.66485 10.00521 29229 ft 387 kts 71°
2026-05-01 14:55 42.67689 10.07611 29222 ft 387 kts 71°
2026-05-01 14:55 42.68893 10.14728 29227 ft 386 kts 71°
2026-05-01 14:56 42.70086 10.21800 29237 ft 387 kts 71°
2026-05-01 14:56 42.71280 10.28921 29236 ft 386 kts 71°
2026-05-01 14:57 42.72416 10.36047 29233 ft 388 kts 74°
2026-05-01 14:57 42.72771 10.47042 29238 ft 393 kts 85°
2026-05-01 14:58 42.72484 10.54420 29219 ft 391 kts 85°
2026-05-01 14:58 42.72023 10.61753 29243 ft 397 kts 94°
2026-05-01 14:59 42.70070 10.68840 29214 ft 406 kts 112°
2026-05-01 14:59 42.67109 10.75355 29229 ft 405 kts 115°
2026-05-01 15:00 42.62621 10.85037 29218 ft 404 kts 115°
2026-05-01 15:01 42.59661 10.91463 28689 ft 407 kts 114°
2026-05-01 15:01 42.58157 10.94725 28097 ft 407 kts 114°
2026-05-01 15:01 42.56661 10.97969 27528 ft 406 kts 114°
2026-05-01 15:01 42.55179 11.01180 26968 ft 406 kts 114°
2026-05-01 15:02 42.53677 11.04428 26403 ft 405 kts 114°
2026-05-01 15:02 42.52697 11.06546 26024 ft 404 kts 114°
2026-05-01 15:02 42.50708 11.10852 25250 ft 403 kts 114°
2026-05-01 15:02 42.49206 11.14097 24652 ft 402 kts 114°
2026-05-01 15:03 42.47702 11.17330 24119 ft 399 kts 114°
2026-05-01 15:03 42.46214 11.20530 23642 ft 394 kts 114°
2026-05-01 15:03 42.44855 11.23756 23193 ft 381 kts 107°
2026-05-01 15:03 42.43932 11.27120 22778 ft 366 kts 97°
2026-05-01 15:04 42.43427 11.30471 22351 ft 354 kts 91°
2026-05-01 15:04 42.43067 11.33726 21930 ft 349 kts 89°
2026-05-01 15:04 42.42724 11.36940 21498 ft 345 kts 90°
2026-05-01 15:04 42.42381 11.40137 21067 ft 341 kts 90°
2026-05-01 15:05 42.42032 11.43327 20643 ft 337 kts 90°
2026-05-01 15:05 42.41677 11.46492 20197 ft 334 kts 90°
2026-05-01 15:05 42.41324 11.49639 19749 ft 331 kts 90°
2026-05-01 15:05 42.40969 11.52766 19432 ft 324 kts 90°
2026-05-01 15:06 42.40602 11.55739 19253 ft 316 kts 94°
2026-05-01 15:06 42.39759 11.58503 19192 ft 318 kts 111°
2026-05-01 15:06 42.38344 11.60874 19200 ft 336 kts 125°
2026-05-01 15:06 42.36618 11.63120 19199 ft 338 kts 126°
2026-05-01 15:07 42.34890 11.65305 19194 ft 339 kts 128°
2026-05-01 15:07 42.33143 11.67517 19184 ft 341 kts 128°
2026-05-01 15:07 42.31363 11.69770 19187 ft 339 kts 127°
2026-05-01 15:07 42.29613 11.71994 19178 ft 338 kts 127°
2026-05-01 15:08 42.27877 11.74206 19172 ft 339 kts 127°
2026-05-01 15:08 42.26155 11.76411 19179 ft 341 kts 127°
2026-05-01 15:08 42.24437 11.78601 19175 ft 339 kts 127°
2026-05-01 15:08 42.22718 11.80796 19173 ft 338 kts 127°
2026-05-01 15:09 42.21010 11.82974 19172 ft 337 kts 127°
2026-05-01 15:09 42.19296 11.85159 19162 ft 338 kts 127°
2026-05-01 15:09 42.17570 11.87355 19159 ft 338 kts 127°
2026-05-01 15:09 42.15845 11.89547 19169 ft 340 kts 127°
2026-05-01 15:10 42.14172 11.91796 19162 ft 335 kts 121°
2026-05-01 15:10 42.11778 11.96935 19142 ft 319 kts 105°
2026-05-01 15:10 42.10823 11.99648 18865 ft 319 kts 105°
2026-05-01 15:11 42.09891 12.02338 18396 ft 319 kts 105°
2026-05-01 15:11 42.08002 12.07733 17585 ft 315 kts 106°
2026-05-01 15:11 42.07061 12.10407 17186 ft 313 kts 107°
2026-05-01 15:12 42.06124 12.13051 16796 ft 311 kts 107°
2026-05-01 15:12 42.04256 12.18303 16029 ft 306 kts 107°
2026-05-01 15:12 42.03341 12.20870 15642 ft 303 kts 107°
2026-05-01 15:13 42.00635 12.28456 14565 ft 296 kts 108°
2026-05-01 15:14 41.98770 12.33324 14281 ft 287 kts 121°
2026-05-01 15:14 41.97142 12.35006 14023 ft 300 kts 151°
2026-05-01 15:14 41.93079 12.36670 13342 ft 301 kts 159°
2026-05-01 15:15 41.89070 12.38265 12678 ft 296 kts 157°
2026-05-01 15:15 41.85167 12.39877 12106 ft 287 kts 156°
2026-05-01 15:16 41.81403 12.41445 11579 ft 278 kts 156°
2026-05-01 15:16 41.77678 12.43003 10938 ft 275 kts 157°
2026-05-01 15:17 41.74025 12.44524 10315 ft 272 kts 156°
2026-05-01 15:18 41.68556 12.46806 9134 ft 266 kts 157°
2026-05-01 15:18 41.66753 12.47556 8791 ft 262 kts 158°
2026-05-01 15:19 41.61533 12.49707 7655 ft 257 kts 158°
2026-05-01 15:19 41.58029 12.50483 6864 ft 261 kts 195°
2026-05-01 15:19 41.56511 12.49114 6480 ft 259 kts 235°
2026-05-01 15:20 41.55595 12.44603 5782 ft 252 kts 262°
2026-05-01 15:20 41.55372 12.42305 5443 ft 249 kts 277°
2026-05-01 15:20 41.55969 12.40230 5032 ft 239 kts 315°
2026-05-01 15:21 41.57169 12.38777 4681 ft 234 kts 325°
2026-05-01 15:21 41.58472 12.37448 4300 ft 233 kts 328°
2026-05-01 15:21 41.59884 12.36428 3918 ft 230 kts 342°
2026-05-01 15:21 41.61383 12.35760 3644 ft 222 kts 346°
2026-05-01 15:22 41.64265 12.34647 3172 ft 214 kts 347°
2026-05-01 15:22 41.65684 12.34080 2917 ft 211 kts 346°
2026-05-01 15:22 41.67070 12.33507 2681 ft 207 kts 345°
2026-05-01 15:23 41.68425 12.32935 2566 ft 195 kts 345°
2026-05-01 15:23 41.69702 12.32395 2343 ft 186 kts 346°
2026-05-01 15:23 41.70928 12.31876 2060 ft 173 kts 346°
2026-05-01 15:23 41.72027 12.31411 1850 ft 157 kts 346°
2026-05-01 15:24 41.73037 12.30986 1624 ft 142 kts 346°
2026-05-01 15:24 41.73968 12.30596 1422 ft 134 kts 346°
2026-05-01 15:24 41.74854 12.30226 1263 ft 135 kts 347°
2026-05-01 15:24 41.75757 12.29846 1185 ft 134 kts 345°
2026-05-01 15:25 41.76650 12.29449 982 ft 134 kts 346°
2026-05-01 15:25 41.77526 12.29088 795 ft 133 kts 346°
2026-05-01 15:25 41.78417 12.28728 602 ft 132 kts 344°
2026-05-01 15:25 41.79300 12.28369 438 ft 132 kts 343°
2026-05-01 15:26 41.80195 12.28001 231 ft 132 kts 346°
2026-05-01 15:26 41.81085 12.27618 111 ft 132 kts 343°
2026-05-01 15:26 41.81949 12.27257 12 ft 117 kts 342°
2026-05-01 15:26 41.82573 12.26997 12 ft 67 kts 344°
2026-05-01 15:27 41.82912 12.26842 12 ft 44 kts 332°
2026-05-01 15:27 41.83145 12.26643 12 ft 36 kts 313°
2026-05-01 15:27 41.83238 12.26475 12 ft 0 kts 264°
2026-05-01 15:29 41.83228 12.26444 12 ft 3 kts 233°
2026-05-01 15:30 41.83176 12.26425 12 ft 7 kts 168°
2026-05-01 15:31 41.82807 12.26579 12 ft 15 kts 162°
2026-05-01 15:31 41.82597 12.26669 12 ft 17 kts 160°
2026-05-01 15:32 41.82359 12.26768 9 ft 20 kts 162°
2026-05-01 15:32 41.82088 12.26882 10 ft 19 kts 163°
2026-05-01 15:33 41.81674 12.27054 11 ft 21 kts 160°
2026-05-01 15:34 41.81233 12.27237 11 ft 20 kts 162°